Regional Weather Roundup
Issued by NWS

Home | Current Version | Previous Version | Graphics & Text | Print | Product List | Glossary On
Versions: 1 2 3 4 5 6 7 8 9 10 11 12 13 14 15 16 17 18 19 20 21 22 23 24 25 26 27 28 29 30 31 32 33 34 35 36 37 38 39 40 41 42 43 44 45 46 47 48 49 50
000
ASUS45 KBOI 280710
RWRID

IDAHO REGIONAL WEATHER ROUNDUP
NATIONAL WEATHER SERVICE BOISE ID
100 AM MDT THU APR 28 2016

NOTE: "FAIR" INDICATES FEW OR NO CLOUDS BELOW 12000 FEET
WITH NO SIGNIFICANT WEATHER AND/OR OBSTRUCTIONS TO VISIBILITY

IDZ012-014-280800-
SOUTHWEST IDAHO


CITY           SKY/WX    TMP DP  RH WIND       PRES   REMARKS
BOISE          MOCLDY    50  41  71 NW10      29.79S
CALDWELL       MOCLDY    51  41  68 W13       29.81S
MOUNTAIN HOME  CLOUDY    48  39  70 NW8       29.78R
$$

IDZ016-017-280800-
SOUTHCENTRAL IDAHO


CITY           SKY/WX    TMP DP  RH WIND       PRES   REMARKS
BURLEY         CLOUDY    43  40  89 CALM      29.78S
JEROME         CLOUDY    45  41  86 CALM      29.79S
TWIN FALLS     CLOUDY    44  38  79 SW9       29.79R
$$

IDZ019>023-280800-
SOUTHEAST IDAHO


CITY           SKY/WX    TMP DP  RH WIND       PRES   REMARKS
IDAHO FALLS    CLOUDY    37  27  67 N10       29.82S WCI  30
POCATELLO      CLOUDY    42  30  62 CALM      29.81S
REXBURG        MOCLDY    39  27  62 NE9       29.82F WCI  33
$$

IDZ006-010-011-018-031-032-280800-
CENTRAL IDAHO MOUNTAINS


CITY           SKY/WX    TMP DP  RH WIND       PRES   REMARKS
MCCALL         MOCLDY    41  36  82 N7        29.85R
HAILEY         MOCLDY    43  36  75 NW3       29.83S
STANLEY          N/A     36  33  89 CALM      29.87S
SALMON         PTCLDY    43  27  52 N10       29.87S
CHALLIS        CLOUDY    43  29  57 NW8       29.84S
$$

IDZ002-004-006-007-026-280800-
NORTHERN IDAHO


CITY           SKY/WX    TMP DP  RH WIND       PRES   REMARKS
LEWISTON       MOCLDY    55  40  56 SW5       29.91R
LOWELL           N/A     49  44  83 VRB3      29.92R
COEUR D`ALENE  CLOUDY    50  43  76 NE7       29.90S
MULLAN PASS    PTCLDY    33  28  81 CALM      29.94R
$$



USA.gov is the U.S. government's official web portal to all federal, state and local government web resources and services.